| time (UTC) | temp F | wind direction | speed MPH | gust MPH | rain 1hr in | rain 24hr in | rain mn in | humidity % | barometer mb |
| 20260505033054 | 51 | 284 | 4.0 | 11.0 | 0.00 | 0.00 | 0.00 | 74 | 1016.0 |
| 20260505031559 | 51 | 305 | 4.0 | 11.0 | 0.00 | 0.00 | 0.00 | 74 | 1015.9 |
| 20260505030055 | 51 | 297 | 4.0 | 14.0 | 0.00 | 0.00 | 0.00 | 73 | 1015.8 |
| 20260505024552 | 52 | 352 | 5.0 | 14.0 | 0.00 | 0.00 | 0.00 | 72 | 1015.6 |
| 20260505023054 | 53 | 290 | 6.0 | 12.0 | 0.00 | 0.00 | 0.00 | 71 | 1015.6 |
| 20260505021554 | 54 | 333 | 7.0 | 13.0 | 0.00 | 0.00 | 0.00 | 69 | 1015.2 |
| 20260505020055 | 55 | 338 | 5.0 | 12.0 | 0.00 | 0.00 | 0.00 | 68 | 1015.2 |
| 20260505014628 | 56 | 296 | 6.0 | 13.0 | 0.00 | 0.00 | 0.00 | 67 | 1015.2 |
| 20260505013054 | 56 | 290 | 8.0 | 15.0 | 0.00 | 0.00 | 0.00 | 64 | 1015.3 |
| 20260505011604 | 58 | 288 | 7.0 | 19.0 | 0.00 | 0.00 | 0.00 | 62 | 1015.3 |
| 20260505010058 | 58 | 264 | 6.0 | 19.0 | 0.00 | 0.00 | 0.00 | 64 | 1015.4 |
| 20260505004554 | 58 | 289 | 6.0 | 16.0 | 0.00 | 0.00 | 0.00 | 64 | 1015.5 |
| 20260505003057 | 58 | 259 | 6.0 | 16.0 | 0.00 | 0.00 | 0.00 | 64 | 1015.4 |
| 20260505001623 | 58 | 324 | 8.0 | 17.0 | 0.00 | 0.00 | 0.00 | 63 | 1015.4 |
| 20260505000135 | 58 | 304 | 7.0 | 15.0 | 0.00 | 0.00 | 0.00 | 61 | 1015.7 |
| 20260504234613 | 59 | 317 | 7.0 | 19.0 | 0.00 | 0.00 | 0.00 | 58 | 1015.5 |
| 20260504233105 | 60 | 248 | 7.0 | 14.0 | 0.00 | 0.00 | 0.00 | 57 | 1015.5 |
| 20260504231557 | 60 | 352 | 6.0 | 15.0 | 0.00 | 0.00 | 0.00 | 57 | 1015.4 |
| 20260504230054 | 60 | 317 | 8.0 | 16.0 | 0.00 | 0.00 | 0.00 | 56 | 1015.4 |
| 20260504224610 | 61 | 290 | 4.0 | 17.0 | 0.00 | 0.00 | 0.00 | 55 | 1015.5 |
| 20260504223055 | 61 | 302 | 4.0 | 15.0 | 0.00 | 0.00 | 0.00 | 56 | 1015.5 |
| 20260504221557 | 61 | 328 | 9.0 | 19.0 | 0.00 | 0.00 | 0.00 | 55 | 1015.8 |
| 20260504220100 | 62 | 305 | 7.0 | 20.0 | 0.00 | 0.00 | 0.00 | 53 | 1016.1 |
| 20260504214554 | 61 | 311 | 9.0 | 18.0 | 0.00 | 0.00 | 0.00 | 54 | 1016.1 |
| 20260504213126 | 61 | 307 | 7.0 | 19.0 | 0.00 | 0.00 | 0.00 | 53 | 1016.1 |
| 20260504211603 | 61 | 16 | 3.0 | 17.0 | 0.00 | 0.00 | 0.00 | 56 | 1016.1 |
| 20260504210051 | 61 | 302 | 8.0 | 14.0 | 0.00 | 0.00 | 0.00 | 52 | 1016.1 |
| 20260504204554 | 60 | 313 | 8.0 | 16.0 | 0.00 | 0.00 | 0.00 | 56 | 1016.1 |
| 20260504203112 | 60 | 278 | 5.0 | 17.0 | 0.00 | 0.00 | 0.00 | 55 | 1016.1 |
| 20260504201555 | 59 | 319 | 6.0 | 15.0 | 0.00 | 0.00 | 0.00 | 58 | 1016.2 |
| 20260504200052 | 60 | 329 | 7.0 | 16.0 | 0.00 | 0.00 | 0.00 | 56 | 1016.1 |
| 20260504194602 | 60 | 296 | 6.0 | 15.0 | 0.00 | 0.00 | 0.00 | 55 | 1016.2 |
| 20260504193105 | 59 | 311 | 8.0 | 14.0 | 0.00 | 0.00 | 0.00 | 57 | 1016.6 |
| 20260504191555 | 59 | 286 | 5.0 | 12.0 | 0.00 | 0.00 | 0.00 | 58 | 1016.4 |
| 20260504190113 | 58 | 242 | 4.0 | 13.0 | 0.00 | 0.00 | 0.00 | 59 | 1016.6 |
| 20260504184606 | 58 | 277 | 6.0 | 14.0 | 0.00 | 0.00 | 0.00 | 60 | 1016.8 |
| 20260504183053 | 58 | 266 | 8.0 | 14.0 | 0.00 | 0.00 | 0.00 | 60 | 1017.0 |
| 20260504181552 | 57 | 296 | 7.0 | 14.0 | 0.00 | 0.00 | 0.00 | 61 | 1017.0 |
| 20260504180055 | 57 | 284 | 6.0 | 11.0 | 0.00 | 0.00 | 0.00 | 62 | 1017.2 |
| 20260504174601 | 57 | 272 | 6.0 | 13.0 | 0.00 | 0.00 | 0.00 | 61 | 1016.8 |
| 20260504173057 | 57 | 283 | 6.0 | 13.0 | 0.00 | 0.00 | 0.00 | 62 | 1017.1 |
| 20260504171555 | 56 | 238 | 8.0 | 17.0 | 0.00 | 0.00 | 0.00 | 63 | 1016.7 |
| 20260504140108 | 49 | 295 | 4.0 | 11.0 | 0.00 | 0.00 | 0.00 | 81 | 1016.1 |
| 20260504110116 | 50 | 0 | 3.0 | 9.0 | 0.00 | 0.00 | 0.00 | 80 | 1015.3 |
| 20260504090117 | 50 | 325 | 5.0 | 14.0 | 0.00 | 0.00 | 0.00 | 79 | 1015.2 |
| 20260504081612 | 50 | 314 | 6.0 | 11.0 | 0.00 | 0.00 | 0.00 | 82 | 1015.7 |
| 20260504044604 | 52 | 344 | 6.0 | 11.0 | 0.00 | 0.00 | 0.00 | 76 | 1015.9 |
| 20260504043059 | 52 | 250 | 4.0 | 10.0 | 0.00 | 0.00 | 0.00 | 76 | 1015.5 |
| 20260504041559 | 53 | 289 | 2.0 | 8.0 | 0.00 | 0.00 | 0.00 | 76 | 1015.4 |
| 20260504040103 | 53 | 313 | 3.0 | 11.0 | 0.00 | 0.00 | 0.00 | 75 | 1015.3 |
| 20260504034604 | 53 | 338 | 3.0 | 10.0 | 0.00 | 0.00 | 0.00 | 75 | 1015.3 |